Maple Lake, MN

7:09 AM CDT on May 23, 2017 (GMT -0500)
Maple Lake Municipal

Weather History for KMGG - December, 2012

Change the Weather History Date:

Sunday, December 9, 2012

  Actual Average (KSTC) Record (KSTC)
Temperature  
Mean Temperature 22 °F -  
Max Temperature 30 °F 25 °F 58 °F (1939)
Min Temperature 12 °F 8 °F -20 °F (1977)
Degree Days  
Heating Degree Days 43    
Moisture  
Dew Point 26 °F    
Average Humidity 96    
Maximum Humidity 100    
Minimum Humidity 86    
Precipitation  
Precipitation 0.30 in - - ()
Sea Level Pressure  
Sea Level Pressure 29.92 in    
Wind  
Wind Speed 10 mph (NE)    
Max Wind Speed 21 mph    
Max Gust Speed 28 mph    
Visibility 2 miles    
Events Snow    
Averages and records for this station are not official NWS values.
T = Trace of Precipitation, MM = Missing Value Source: NWS Daily Summary

Daily Weather History Graph

Daily Weather History Graph

Search for Another Location

Airport or City:

Trip Planner

Search our weather history database for the weather conditions in past years. The results will help you decide how hot, cold, wet, or windy it might be!

Date:

Astronomy

Dec. 09, 2012 Rise Set
Actual Time 7:43 AM CST 4:33 PM CST
Civil Twilight 7:09 AM CST 5:07 PM CST
Nautical Twilight 6:32 AM CST 5:44 PM CST
Astronomical Twilight 5:56 AM CST 6:20 PM CST
Moon 3:08 AM CST (12/9) 1:48 PM CST (12/9)
Length of Visible Light 9h 57m
Length of Day
8h 49m
Waning Crescent, 18% of the Moon is Illuminated
Dec 9
Waning Crescent
Dec 13
New
Dec 19
First Quarter
Dec 28
Full
Jan 4
Last Quarter

Hourly Weather History & Observations

Time (CST) Temp. Windchill Dew Point Humidity Pressure Visibility Wind Dir Wind Speed Gust Speed Precip Events Conditions
12:14 AM 29.1 °F 21.3 °F 28.4 °F 97% 29.99 in 1.2 mi East 8.1 mph - N/A Snow Light Snow
12:35 AM 29.1 °F 23.0 °F 28.8 °F 99% 29.99 in 1.2 mi East 5.8 mph - N/A Snow Light Snow
12:54 AM 29.3 °F 23.2 °F 28.9 °F 99% 29.99 in 1.2 mi East 5.8 mph - N/A Snow Snow
1:15 AM 29.3 °F 23.2 °F 29.1 °F 99% 29.98 in 0.8 mi East 5.8 mph - N/A Snow Snow
1:35 AM 29.3 °F 22.3 °F 29.1 °F 99% 29.98 in 0.8 mi East 6.9 mph - N/A Snow Snow
1:55 AM 29.3 °F 21.5 °F 29.1 °F 99% 29.97 in 1.0 mi East 8.1 mph - 0.01 in Snow Snow
2:15 AM 29.3 °F 20.8 °F 29.1 °F 99% 29.96 in 1.0 mi East 9.2 mph - N/A Snow Snow
2:55 AM 29.3 °F 20.8 °F 29.3 °F 100% 29.95 in 0.8 mi East 9.2 mph - N/A Snow Snow
3:15 AM 29.3 °F 19.6 °F 29.3 °F 100% 29.95 in 0.8 mi East 11.5 mph - 0.01 in Snow Snow
3:35 AM 29.3 °F 19.1 °F 29.3 °F 100% 29.94 in 1.0 mi East 12.7 mph - 0.02 in Snow Snow
3:55 AM 29.3 °F 20.2 °F 29.3 °F 100% 29.93 in 0.8 mi East 10.4 mph - 0.03 in Snow Snow
4:14 AM 29.3 °F 20.2 °F 29.1 °F 99% 29.94 in 0.8 mi East 10.4 mph - 0.01 in Snow Snow
4:35 AM 29.3 °F 19.1 °F 29.1 °F 99% 29.93 in 1.0 mi East 12.7 mph 16.1 mph 0.03 in Snow Snow
4:54 AM 29.3 °F 20.2 °F 29.1 °F 99% 29.93 in 1.0 mi East 10.4 mph - 0.06 in Snow Snow
5:15 AM 29.3 °F 20.2 °F 28.9 °F 99% 29.92 in 1.0 mi East 10.4 mph 17.3 mph 0.02 in Snow Light Snow
5:35 AM 29.3 °F 19.6 °F 28.9 °F 99% 29.92 in 1.5 mi East 11.5 mph - 0.04 in Snow Light Snow
5:55 AM 29.3 °F 20.8 °F 28.9 °F 99% 29.91 in 1.5 mi East 9.2 mph - 0.05 in Snow Light Snow
6:15 AM 29.3 °F 20.2 °F 28.9 °F 99% 29.92 in 1.8 mi East 10.4 mph - N/A Snow Light Snow
6:35 AM 29.5 °F 20.4 °F 28.9 °F 98% 29.90 in 2.5 mi East 10.4 mph 16.1 mph N/A Snow Light Snow
6:54 AM 29.7 °F 20.7 °F 29.1 °F 98% 29.92 in 5.0 mi East 10.4 mph - N/A Snow Light Snow
7:15 AM 29.8 °F 20.9 °F 29.1 °F 97% 29.92 in 4.0 mi East 10.4 mph - N/A   Overcast
7:35 AM 30.0 °F 22.4 °F 29.3 °F 97% 29.93 in 2.5 mi East 8.1 mph - N/A Snow Light Snow
7:55 AM 30.0 °F 21.1 °F 29.3 °F 97% 29.92 in 2.5 mi East 10.4 mph - N/A Snow Light Snow
8:15 AM 29.8 °F 20.3 °F 29.3 °F 98% 29.92 in 0.8 mi ENE 11.5 mph - N/A Snow Light Snow
8:35 AM 29.7 °F 20.1 °F 29.3 °F 99% 29.92 in 0.5 mi ENE 11.5 mph - N/A Snow Light Snow
8:55 AM 29.8 °F 20.9 °F 29.3 °F 98% 29.92 in 0.5 mi ENE 10.4 mph - N/A Snow Snow
9:15 AM 29.8 °F 20.3 °F 29.3 °F 98% 29.92 in 0.5 mi ENE 11.5 mph - N/A Snow Snow
9:34 AM 29.8 °F 20.9 °F 29.3 °F 98% 29.91 in 0.5 mi ENE 10.4 mph - N/A Snow Snow
9:55 AM 30.0 °F 21.7 °F 29.3 °F 97% 29.92 in 0.5 mi ENE 9.2 mph - N/A Snow Snow
10:15 AM 30.2 °F 21.9 °F 29.5 °F 97% 29.92 in 0.5 mi ENE 9.2 mph - N/A Snow Light Snow
10:35 AM 30.2 °F 21.3 °F 29.7 °F 98% 29.92 in 0.5 mi ENE 10.4 mph - N/A Snow Snow
10:55 AM 30.2 °F 21.9 °F 29.8 °F 99% 29.91 in 0.5 mi NE 9.2 mph - N/A Snow Snow
11:14 AM 30.2 °F 21.9 °F 29.7 °F 98% 29.90 in 0.5 mi NE 9.2 mph - 0.02 in Snow Light Snow
11:35 AM 30.2 °F 20.8 °F 29.3 °F 96% 29.89 in 0.8 mi NE 11.5 mph - 0.04 in Snow Light Snow
11:55 AM 30.2 °F 21.3 °F 29.3 °F 96% 29.88 in 1.0 mi NE 10.4 mph - 0.05 in Snow Light Snow
12:15 PM 30.2 °F 21.3 °F 29.3 °F 96% 29.87 in 0.8 mi NE 10.4 mph - N/A Snow Light Snow
12:35 PM 30.2 °F 21.9 °F 29.3 °F 96% 29.86 in 0.8 mi NE 9.2 mph - N/A Snow Light Snow
12:55 PM 30.2 °F 21.3 °F 29.3 °F 96% 29.85 in 0.8 mi NE 10.4 mph - 0.01 in Snow Light Snow
1:15 PM 30.2 °F 21.3 °F 29.3 °F 96% 29.85 in 1.0 mi NE 10.4 mph - 0.01 in Snow Light Snow
1:35 PM 29.8 °F 20.9 °F 29.1 °F 97% 29.84 in 1.0 mi NE 10.4 mph - 0.02 in Snow Light Snow
1:54 PM 29.8 °F 21.5 °F 29.1 °F 97% 29.84 in 1.2 mi NE 9.2 mph - 0.02 in   Overcast
2:15 PM 29.8 °F 21.5 °F 29.3 °F 98% 29.84 in 1.2 mi NNE 9.2 mph - 0.01 in Snow Light Snow
2:35 PM 29.8 °F 20.9 °F 29.3 °F 98% 29.84 in 1.0 mi NE 10.4 mph - 0.01 in Snow Light Snow
2:54 PM 29.8 °F 21.5 °F 29.3 °F 98% 29.84 in 1.0 mi NNE 9.2 mph - 0.02 in Snow Light Snow
3:15 PM 30.0 °F 21.7 °F 29.1 °F 96% 29.85 in 1.0 mi NNE 9.2 mph - N/A Snow Light Snow
3:35 PM 30.0 °F 21.7 °F 29.3 °F 97% 29.86 in 0.8 mi NNE 9.2 mph - 0.01 in Snow Light Snow
3:55 PM 29.8 °F 20.9 °F 29.3 °F 98% 29.87 in 0.8 mi North 10.4 mph - 0.02 in Snow Light Snow
4:14 PM 29.3 °F 20.2 °F 28.9 °F 99% 29.87 in 0.5 mi North 10.4 mph - 0.01 in Snow Snow
4:35 PM 29.3 °F 19.6 °F 28.8 °F 98% 29.88 in 0.5 mi North 11.5 mph - 0.01 in Snow Snow
4:55 PM 29.1 °F 19.4 °F 28.4 °F 97% 29.89 in 1.0 mi North 11.5 mph 16.1 mph 0.02 in Snow Snow
5:15 PM 29.1 °F 18.9 °F 28.8 °F 99% 29.89 in 0.8 mi North 12.7 mph 21.9 mph 0.01 in Snow Snow
5:35 PM 29.1 °F 17.9 °F 28.4 °F 97% 29.90 in 1.0 mi North 15.0 mph 21.9 mph 0.01 in Snow Snow
5:54 PM 26.6 °F 13.8 °F 25.9 °F 97% 29.91 in 1.0 mi North 17.3 mph - 0.01 in Snow Light Snow
6:15 PM 25.5 °F 12.4 °F 24.4 °F 96% 29.92 in 1.2 mi North 17.3 mph 26.5 mph N/A Snow Light Snow
6:35 PM 24.8 °F 10.7 °F 23.5 °F 95% 29.93 in 1.8 mi North 19.6 mph 25.3 mph N/A Snow Light Snow
6:55 PM 23.9 °F 10.8 °F 22.6 °F 95% 29.92 in 2.0 mi North 16.1 mph 27.6 mph N/A Snow Light Snow
7:15 PM 23.5 °F 8.7 °F 22.1 °F 94% 29.93 in 2.5 mi North 20.7 mph 27.6 mph N/A Snow Light Snow
7:35 PM 23.0 °F 8.0 °F 21.6 °F 94% 29.93 in 2.0 mi North 20.7 mph 24.2 mph N/A Snow Light Snow
7:55 PM 22.5 °F 8.0 °F 20.8 °F 93% 29.94 in 2.5 mi NNW 18.4 mph 23.0 mph N/A Snow Light Snow
8:15 PM 21.2 °F 6.8 °F 19.4 °F 93% 29.94 in 5.0 mi NNW 17.3 mph 23.0 mph N/A Snow Light Snow
8:35 PM 20.3 °F 5.2 °F 18.3 °F 92% 29.95 in 4.0 mi North 18.4 mph 25.3 mph N/A Snow Light Snow
8:54 PM 19.4 °F 5.0 °F 17.4 °F 92% 29.95 in 3.0 mi NNW 16.1 mph 19.6 mph N/A Snow Light Snow
9:15 PM 19.0 °F 4.5 °F 16.5 °F 90% 29.95 in 7.0 mi NNW 16.1 mph 23.0 mph N/A Snow Light Snow
9:35 PM 18.7 °F 4.6 °F 15.8 °F 89% 29.95 in 7.0 mi NNW 15.0 mph - N/A   Overcast
9:54 PM 17.6 °F 1.7 °F 14.9 °F 89% 29.96 in 5.0 mi NNW 18.4 mph 27.6 mph N/A   Overcast
10:35 PM 16.7 °F 1.0 °F 13.8 °F 88% 29.96 in 5.0 mi NNW 17.3 mph 24.2 mph N/A   Overcast
10:54 PM 16.3 °F -0.8 °F 13.3 °F 88% 29.95 in 7.0 mi North 20.7 mph - N/A   Overcast
11:15 PM 15.3 °F 0.8 °F 12.0 °F 87% 29.96 in 10.0 mi NNW 13.8 mph 24.2 mph N/A   Scattered Clouds
11:35 PM 14.0 °F -2.5 °F 10.9 °F 88% 29.97 in 10.0 mi NNW 17.3 mph 20.7 mph N/A   Clear
11:55 PM 12.9 °F -3.4 °F 9.5 °F 86% 29.97 in 10.0 mi NNW 16.1 mph - N/A   Clear